*** DING..DANG..DONG and DONG ***

TR)

Hava sahamızda SMART projesi kapsamında LTBB_CTR sektör ismi "Ankara Kontrol" olarak değişmiştir. Tüm uçuş yapan pilotlarımızın hava sahamızda yapılan güncellemeleri chartlarından bir kez daha kontrol etmelerini rica ederiz. 

Kırımsız uçuşlar dileriz.

 

EN)

According to SMART project, LTBB_CTR sector was renamed as "Ankara Control". We kindly request our pilots check updates from their charts once more time. 

Have a safe flight.

 

For more info please contact us via welcome@turvacc.org 

 

Have a great flight in VATSIM Turkish Airspace!

VATSIM Turkiye / TURvACC Crew

 

 

 

1 Hava sahamızda uçuş yapan bir pilot musunuz?     
Are you a pilot flys in our airspace?
2 Hava sahamızda yetkili bir kontrolör müsünüz?   
Are you an authorized controller in our airspace? 

 

 

UTC
Istanbul

Istanbul WX Radar

Events Booking Upcoming events

There are no up-coming events

VATSIM Türkiye Airspace Online Traffic

-> LTBA 291720Z 04008KT 350V100 9999 SCT040 25/17 Q1011 NOSIG
-> LTFJ 291720Z 03007KT 9999 FEW035TCU SCT200 24/19 Q1011 NOSIG
-> LTAC 291720Z 09014KT 9999 -SHRA FEW030CB BKN035 18/13 Q1013 BECMG VRB02KT
-> LTAI 291720Z 02004KT 350V070 9999 BKN030 25/18 Q1007 NOSIG
-> LTCG 291720Z 20004KT 9999 SCT035 BKN100 25/21 Q1009 TEMPO FM1800 -TSRA
-> LTCC 291720Z 20011KT CAVOK 34/09 Q1005 NOSIG

Online ATC & vACC Staff

ATC Bookings List

LTAC FlightRadar Live Traffic
LTBA FlightRadar Live Traffic
LTAI FlightRadar Live Traffic